Location: Recife
(8.0585°S, 34.8848°W)
Time: 10:26:26
(UTC-03:00)

Vanguard 2 Rocket - Pass Details

Date: 17 April 2026
Orbit: 553 x 3286 km, 32.9° (Epoch: 8 May)

Event Time Altitude Azimuth Distance (km) Brightness Sun altitude
Rises 11:46:37 0° 231° (SW) 6,347 11.1 70.1°
Reaches altitude 10° 11:50:40 10° 225° (SW) 5,614 11.0 69.7°
Maximum altitude 12:08:44 53° 151° (SSE) 3,767 10.5 67.6°
Drops below altitude 10° 12:27:08 10° 79° (ENE) 5,754 11.0 64.8°
Sets 12:31:16 0° 74° (ENE) 6,513 11.1 64.1°
